Terug naar catalogus

STARLINK-32791

ActiefCommunicatieVLEO
NORAD 62530·PAYLOAD·🇺🇸 United States

Gelanceerd Jan 8, 2025 vanaf Cape Canaveral Space Force Station

Loading…

Volgende Passages (komende 24 uur)

TLE

VersSource: CelesTrak SupGP

Epoch: Sep 15, 2026, 02:46 UTC

1 62530C 25004V   26258.11576389 -.00040498  00000+0 -14678-2 0  2582
2 62530  42.9993 230.0159 0001341 263.3823 315.9951 15.27576163    17

Volg STARLINK-32791 in realtime met AllMySat

Download on the App Store